Flag for Norway Weather past 2 weeks in Kolbotn, Norway

Now
52 °F

Low clouds.


Feels Like: 45 °F
Forecast: 58 / 78 °F
Wind: 26 mph from Northeast

Location: Oslo / Fornebu

Current Time: Jul 4, 2015 at 12:40:26 PM

Latest Report: Jul 4, 2015 at 11:50 AM


Visibility: N/A

Pressure: 30.24 "Hg

Humidity: 94%

Dew point: 50 °F

Location of KolbotnLocation

Historic Weather in Kolbotn — Graph

°F

Kolbotn temperature yesterday

Maximum temperature yesterday: 55 °F (at 5:20 AM)
Minimum temperature yesterday: 48 °F (at 10:50 PM)
Average temperature yesterday: 53 °F

Past Weeks' High & Low Weather Summary

 TemperatureHumidityPressure
High59 °F (Jul 2, 4:20 AM)100% (Jun 25, 9:50 AM)30.36 "Hg (Jun 25, 9:50 AM)
Low46 °F (Jun 23, 9:20 AM)63% (Jun 24, 2:50 PM)29.80 "Hg (Jun 22, 3:20 AM)
Average52 °F88%30.00 "Hg
* Reported Jun 19 11:20 AM — Jul 4 11:20 AM, Kolbotn, Weather by CustomWeather, © 2015

Note: Actual official high and low records may vary slightly from our data, if they occured in-between our weather recording intervals... More about our weather records

Advertising

Kolbotn weather history for previous 24 hours

 ConditionsComfort  
Time TempWeatherWind HumidityBarometerVisibility
11:20 AM
Sat, Jul 4
52 °FLow clouds.24 mph94%30.24 "HgN/A
10:50 AM52 °FLow clouds.23 mph94%30.24 "HgN/A
10:20 AM52 °FLow clouds.23 mph94%30.27 "HgN/A
9:50 AM52 °FLow clouds.24 mph94%30.27 "HgN/A
9:20 AM50 °FLow clouds.26 mph94%30.27 "HgN/A
8:50 AM50 °FLow clouds.28 mph94%30.24 "HgN/A
8:20 AM50 °FLow clouds.28 mph94%30.24 "HgN/A
7:50 AM48 °FPartly sunny.24 mph100%30.27 "HgN/A
7:20 AM50 °FDrizzle. Partly sunny.23 mph100%30.27 "HgN/A
6:50 AM48 °FDrizzle. Fog.23 mph100%30.27 "Hg1 mi
6:20 AM48 °FDrizzle. Fog.21 mph100%30.30 "Hg0 mi
5:50 AM48 °FLight rain. Fog.20 mph100%30.30 "Hg0 mi
5:20 AM48 °FLight rain. Fog.17 mph100%30.30 "Hg0 mi
4:50 AM48 °FLight rain. Fog.17 mph100%30.30 "Hg0 mi
4:20 AM48 °FLight rain. Fog.15 mph100%30.33 "Hg0 mi
3:50 AM48 °FLight rain. Fog.14 mph100%30.33 "Hg0 mi
3:20 AM48 °FLight rain. Fog.10 mph100%30.33 "Hg1 mi
2:50 AM48 °FPassing clouds.13 mph100%30.33 "Hg3 mi
2:20 AM48 °FPassing clouds.13 mph100%30.36 "Hg4 mi
1:50 AM48 °FLight rain. Passing clouds.13 mph100%30.36 "Hg4 mi
1:20 AM48 °FLight rain. Fog.12 mph100%30.36 "Hg0 mi
12:50 AM48 °FLight rain. Fog.12 mph100%30.36 "Hg0 mi
12:20 AM50 °FLight rain. Fog.12 mph100%30.36 "Hg0 mi
11:50 PM
Fri, Jul 3
48 °FLight rain. Fog.10 mph100%30.36 "Hg0 mi
11:20 PM50 °FLight rain. Fog.10 mph100%30.36 "Hg0 mi
10:50 PM48 °FLight rain. Fog.10 mph100%30.36 "Hg0 mi
10:20 PM50 °FLight rain. Fog.10 mph100%30.36 "Hg0 mi
9:50 PM50 °FLight rain. Fog.12 mph100%30.36 "Hg0 mi
9:20 PM50 °FLight rain. Fog.12 mph100%30.36 "Hg1 mi
8:50 PM50 °FLight rain. Fog.12 mph100%30.36 "Hg1 mi
8:20 PM50 °FFog.12 mph100%30.36 "Hg2 mi
4:50 PM54 °FLow clouds.17 mph94%30.30 "HgN/A
4:20 PM54 °FLow clouds.20 mph94%30.27 "HgN/A
3:50 PM54 °FLow clouds.21 mph88%30.27 "HgN/A
3:20 PM55 °FPartly sunny.20 mph82%30.27 "HgN/A
2:50 PM55 °FPartly sunny.22 mph82%30.24 "HgN/A
2:20 PM55 °FPartly sunny.23 mph82%30.24 "HgN/A
1:50 PM54 °FLow clouds.22 mph88%30.21 "HgN/A
1:20 PM54 °FPartly sunny.24 mph94%30.21 "HgN/A
12:50 PM55 °FScattered clouds.16 mph88%30.18 "HgN/A
12:20 PM55 °FPartly sunny.18 mph88%30.18 "HgN/A
Weather by CustomWeather, © 2015

See weather overviewHow to use our weather pages